Flag for U.S.A. Weather past 2 weeks in Glennallen, Alaska, U.S.A.

Now
-11 °F

Passing clouds.


Feels Like: -11 °F
Forecast: -24 / -16 °F
Wind: No wind

Location: Gulkana Airport

Current Time: Jan 31, 2015 at 2:09:46 PM

Latest Report: Jan 31, 2015 at 1:53 PM


Visibility: 10 mi

Pressure: 30.86 "Hg

Humidity: 78%

Dew point: -16 °F

Location of GlennallenLocation

Historic Weather in Glennallen — Graph

°F

Glennallen temperature yesterday

Maximum temperature yesterday: 3 °F (at 2:53 PM)
Minimum temperature yesterday: -17 °F (at 9:53 PM)
Average temperature yesterday: -6 °F

Past Weeks' High & Low Weather Summary

 TemperatureHumidityPressure
High32 °F (Jan 16, 1:53 PM)89% (Jan 16, 8:53 PM)30.95 "Hg (Jan 16, 8:53 PM)
Low-33 °F (Jan 28, 3:53 AM)65% (Jan 28, 11:53 AM)29.25 "Hg (Jan 16, 1:53 PM)
Average-2 °F77%29.93 "Hg
* Reported Jan 16 12:53 PM — Jan 31 12:53 PM, Glennallen, Weather by CustomWeather, © 2014

Note: Actual official high and low records may vary slightly from our data, if they occured in-between our weather recording intervals... More about our weather records

Advertising

Glennallen weather history for previous 24 hours

 ConditionsComfort  
Time TempWeatherWind HumidityBarometerVisibility
12:53 PM
Jan 31
-12 °FSunny.5 mph70%30.89 "Hg10 mi
11:53 AM-13 °FSunny.No wind70%30.90 "Hg10 mi
10:53 AM-17 °FSunny.5 mph73%30.91 "Hg10 mi
9:53 AM-22 °FLow clouds.3 mph73%30.94 "Hg10 mi
8:53 AM-25 °FClear.No wind73%30.94 "Hg4 mi
7:53 AM-21 °FClear.3 mph69%30.94 "Hg10 mi
6:53 AM-25 °FClear.No wind73%30.95 "Hg10 mi
5:53 AM-23 °FClear.3 mph69%30.94 "Hg10 mi
4:53 AM-18 °FClear.No wind73%30.94 "Hg10 mi
3:53 AM-19 °FClear.5 mph65%30.94 "Hg10 mi
2:53 AM-20 °FClear.3 mph69%30.94 "Hg10 mi
1:53 AM-18 °FClear.3 mph69%30.94 "Hg10 mi
12:53 AM-19 °FClear.3 mph72%30.94 "Hg10 mi
11:53 PM
Jan 30
-16 °FClear.6 mph74%30.94 "Hg10 mi
10:53 PM-15 °FClear.8 mph74%30.95 "Hg10 mi
9:53 PM-17 °FClear.3 mph77%30.94 "Hg10 mi
8:53 PM-15 °FClear.6 mph74%30.94 "Hg10 mi
7:53 PM-15 °FPassing clouds.5 mph74%30.95 "Hg10 mi
6:53 PM-12 °FClear.5 mph74%30.91 "Hg10 mi
5:53 PMN/APassing clouds.No windN/A30.89 "Hg10 mi
4:53 PM-8 °FClear.No wind83%30.88 "Hg10 mi
3:53 PM-1 °FPassing clouds.No wind75%30.86 "Hg10 mi
2:53 PM3 °FOvercast.No wind79%30.84 "Hg10 mi
Weather by CustomWeather, © 2014

See weather overviewHow to use our weather pages